Location: *
(2.5500°S, 65.9667°W)
Time: 11:50:31
(UTC+00:00)

Cosmos 44 Rocket - Pass Details

Date: 26 October 2021
Orbit: 644 x 746 km, 65.1° (Epoch: 29 November)

Event Time Altitude Azimuth Distance (km) Brightness Sun altitude
Rises 23:20:42 0° 211° (SSW) 3,117 7.4 -17.2°
Reaches altitude 10° 23:23:05 10° 215° (SW) 2,209 6.6 -17.7°
Maximum altitude 23:28:00 52° 291° (WNW) 905 4.1 -18.9°
Drops below altitude 10° 23:33:00 10° 7° (N) 2,241 5.7 -20.1°
Enters shadow 23:33:17 - 8° (N) 2,350 5.8 -20.2°
